Guadalajara Don Miguel, Mexico

12:07 PM CDT on September 26, 2017 (GMT -0500)
Guadalajara Don Miguel

Weather History for MMGL - January, 2013

Change the Weather History Date:

Monday, January 21, 2013

  Actual Average Record
Temperature  
Mean Temperature 62 °F -  
Max Temperature 73 °F 76 °F 140 °F (2000)
Min Temperature 50 °F 39 °F 32 °F (1998)
Degree Days  
Heating Degree Days 3    
Growing Degree Days 12 (Base 50)    
Moisture  
Dew Point 43 °F    
Average Humidity 54    
Maximum Humidity 77    
Minimum Humidity 29    
Precipitation  
Precipitation 0.00 in - - ()
Sea Level Pressure  
Sea Level Pressure 30.12 in    
Wind  
Wind Speed 4 mph ()    
Max Wind Speed 10 mph    
Max Gust Speed -    
Visibility 9.1 miles    
Events Rain    
Averages and records for this station are not official NWS values.
T = Trace of Precipitation, MM = Missing Value Source: Averaged Metar Reports

Daily Weather History Graph

Daily Weather History Graph

Search for Another Location

Airport or City:

Trip Planner

Search our weather history database for the weather conditions in past years. The results will help you decide how hot, cold, wet, or windy it might be!

Date:

Astronomy

Jan. 21, 2013 Rise Set
Actual Time 7:31 AM CST 6:37 PM CST
Civil Twilight 7:08 AM CST 7:01 PM CST
Nautical Twilight 6:41 AM CST 7:28 PM CST
Astronomical Twilight 6:14 AM CST 7:54 PM CST
Moon 2:21 PM CST (1/21) 3:00 AM CST (1/21)
Length of Visible Light 11h 52m
Length of Day
11h 06m
Waxing Gibbous, 75% of the Moon is Illuminated
Jan 21
Waxing Gibbous
Jan 26
Full
Feb 3
Last Quarter
Feb 10
New
Feb 17
First Quarter

Hourly Weather History & Observations

Time (CST) Temp. Dew Point Humidity Pressure Visibility Wind Dir Wind Speed Gust Speed Precip Events Conditions
12:54 AM 59.0 °F 44.6 °F 59% 30.24 in 8.0 mi SE 8.1 mph - N/A Rain Light Rain
1:55 AM 59.0 °F 44.6 °F 59% 30.23 in 8.0 mi WSW 4.6 mph - N/A   Overcast
2:54 AM 57.2 °F 46.4 °F 67% 29.96 in 8.0 mi WSW 5.8 mph - N/A   Overcast
3:53 AM 57.2 °F 46.4 °F 67% 30.20 in 8.0 mi East 5.8 mph - N/A   Overcast
4:54 AM 55.4 °F 46.4 °F 72% 30.20 in 8.0 mi Calm Calm - N/A   Overcast
5:58 AM 55.4 °F 48.2 °F 77% 29.94 in 8.0 mi South 3.5 mph - N/A   Overcast
6:50 AM 53.6 °F 46.4 °F 77% 30.20 in 8.0 mi NE 3.5 mph - N/A   Overcast
7:53 AM 53.6 °F 46.4 °F 77% 30.21 in 8.0 mi Calm Calm - N/A   Mostly Cloudy
8:54 AM 55.4 °F 48.2 °F 77% 30.02 in 8.0 mi Calm Calm - N/A   Mostly Cloudy
9:52 AM 59.0 °F 46.4 °F 63% 30.24 in 8.0 mi Calm Calm - N/A   Mostly Cloudy
10:53 AM 64.4 °F 46.4 °F 52% 30.26 in 8.0 mi East 5.8 mph - N/A   Mostly Cloudy
11:50 AM 66.2 °F 42.8 °F 43% 30.01 in 10.0 mi NE 5.8 mph - N/A   Mostly Cloudy
12:47 PM 69.8 °F 42.8 °F 38% 30.23 in 10.0 mi NE 3.5 mph - N/A   Mostly Cloudy
1:49 PM 69.8 °F 39.2 °F 33% 30.18 in 10.0 mi ESE 4.6 mph - N/A   Mostly Cloudy
2:47 PM 71.6 °F 37.4 °F 29% 29.90 in 10.0 mi NE 10.4 mph - N/A   Mostly Cloudy
3:46 PM 73.4 °F 39.2 °F 29% 30.12 in 10.0 mi NNE 5.8 mph - N/A   Mostly Cloudy
4:52 PM 73.4 °F 39.2 °F 29% 30.12 in 10.0 mi South 4.6 mph - N/A   Scattered Clouds
5:50 PM 71.6 °F 37.4 °F 29% 29.88 in 10.0 mi East 6.9 mph - N/A   Partly Cloudy
6:46 PM 68.0 °F 37.4 °F 33% 30.13 in 10.0 mi SE 5.8 mph - N/A   Partly Cloudy
7:47 PM 60.8 °F 39.2 °F 45% 30.15 in 10.0 mi ESE 4.6 mph - N/A   Clear
8:46 PM 59.0 °F 41.0 °F 51% 29.98 in 10.0 mi SE 4.6 mph - N/A   Clear
9:46 PM 53.6 °F 41.0 °F 62% 30.18 in 10.0 mi Calm Calm - N/A   Clear
10:47 PM 51.8 °F 41.0 °F 67% 30.19 in 10.0 mi Calm Calm - N/A   Clear
11:53 PM 50.0 °F 41.0 °F 71% 30.00 in 10.0 mi Calm Calm - N/A   Clear